Location: Westerlo
(51.0830°N, 4.9170°E)
Time: 06:37:47
(UTC+02:00)

ISS - Visible Passes

Search period start: 21 July 2019 00:00
Search period end: 31 July 2019 00:00
Orbit: 409 x 418 km, 51.6° (Epoch: 21 July)

Date Brightness Start Highest point End Pass type
(mag) Time Alt. Az. Time Alt. Az. Time Alt. Az.
21 Jul -3.7 00:38:06 10° W 00:41:27 79° N 00:44:48 10° E visible
21 Jul -3.9 02:14:50 10° W 02:18:01 62° SW 02:18:01 62° SW visible
21 Jul -3.7 23:48:46 10° W 23:52:07 82° N 23:55:28 10° E visible
22 Jul -4.0 01:25:31 10° W 01:28:51 79° SSW 01:29:25 58° ESE visible
22 Jul -3.8 22:59:26 10° WSW 23:02:47 89° S 23:06:08 10° E visible
23 Jul -3.9 00:36:12 10° W 00:39:32 87° N 00:41:12 27° E visible
23 Jul -1.7 02:12:58 10° W 02:14:00 17° W 02:14:00 17° W visible
23 Jul -3.7 23:46:50 10° W 23:50:12 80° N 23:53:08 13° E visible
24 Jul -3.0 01:23:34 10° W 01:25:57 38° WSW 01:25:57 38° WSW visible
24 Jul -3.7 22:57:28 10° W 23:00:49 79° N 23:04:10 10° E visible
25 Jul -3.9 00:34:12 10° W 00:37:31 67° SSW 00:37:59 57° SSE visible
25 Jul -3.9 23:44:50 10° W 23:48:11 84° SSW 23:50:04 24° ESE visible
26 Jul -1.7 01:21:43 10° W 01:22:52 18° W 01:22:52 18° W visible
26 Jul -3.8 22:55:27 10° W 22:58:49 85° NNE 23:02:10 10° E visible
27 Jul -3.1 00:32:14 10° W 00:35:01 38° SW 00:35:01 38° SW visible
27 Jul -3.6 23:42:48 10° W 23:46:04 54° SSW 23:47:10 35° SE visible
28 Jul -3.8 22:53:23 10° W 22:56:43 72° SSW 22:59:21 15° ESE visible
29 Jul -1.9 00:30:25 10° W 00:32:09 19° WSW 00:32:09 19° WSW visible
29 Jul -2.8 23:40:48 10° W 23:43:48 30° SSW 23:44:22 28° S visible
30 Jul -3.2 22:51:18 10° W 22:54:30 43° SSW 22:56:36 18° SE visible
